[[{"header":{"parameterUnit":"m.s-1","parameterCategory":2,"la1":30.2991,"la2":30.254,"lo1":-89.0895,"lo2":-89.0444,"dy":0.0017,"dx":0.0017,"nx":28,"ny":28,"refTime":"2025-12-29T03:00:00:Z","depth":"0","parameterNumber":2,"parameterNumberName":"U-component_of_CURRENTS"},"data":[0,0,0,0,0,0,0,0,0,0,0,0,0,0,0,0,0,0,0,0,0,0,0,0,0,0,0,0,0,0,0,0,0,0,0,0,0,0,0,0,0,0,0,0,0,0,0,0,0,0,0,0,0,0,0,0,0,0,-0.1927,-0.1927,0,-0.196,-0.1961,-0.1961,-0.193,-0.1929,-0.1928,-0.1927,-0.1952,-0.1954,-0.1956,0,0,0,0,0,0,0,0,0,0,0,0,0,-0.1903,-0.1903,-0.1927,-0.1927,-0.1928,-0.196,-0.1961,-0.1961,-0.1931,-0.1929,-0.1928,-0.1926,-0.1952,-0.1954,-0.1956,0,0,0,0,0,0,0,0,0,0,0,0,0,-0.1923,-0.1903,-0.1927,-0.1916,-0.1916,-0.196,-0.1961,-0.1961,-0.1931,-0.1929,-0.1927,-0.1925,-0.1951,-0.1954,-0.1956,-0.2012,0,0,-0.1965,-0.1966,0,0,0,0,0,0,0,0,-0.1921,-0.1923,-0.1917,-0.1917,-0.1916,-0.1939,-0.1961,-0.1978,-0.1931,-0.1926,-0.1927,-0.1924,-0.1948,-0.1951,-0.1962,-0.2013,-0.2014,-0.1965,-0.1967,-0.1968,-0.1969,0,0,0,0,0,0,0,-0.192,-0.1922,-0.1941,-0.1918,-0.1917,-0.1932,-0.1932,-0.1965,-0.1947,-0.1926,-0.1924,-0.1927,-0.1948,-0.196,-0.1963,-0.2015,-0.1965,-0.1968,-0.1969,-0.1971,-0.2222,-0.2226,0,0,0,0,0,0,-0.1914,-0.1921,-0.194,-0.1942,-0.1914,-0.1934,-0.1934,-0.1934,-0.1947,-0.1947,-0.1929,-0.1926,-0.1956,-0.196,-0.1964,-0.2085,-0.1968,-0.1971,-0.1972,-0.2217,-0.2223,-0.2228,0,0,0,0,0,0,-0.1913,-0.1915,-0.1938,-0.1932,-0.1935,-0.1936,-0.1936,-0.1936,-0.1937,-0.1949,-0.1949,-0.193,-0.1955,-0.196,-0.2013,-0.2083,-0.1972,-0.1975,-0.2211,-0.2218,-0.2225,-0.2293,0,0,0,0,0,0,-0.1912,-0.1915,-0.1913,-0.1931,-0.1936,-0.1972,-0.1938,-0.1938,-0.1943,-0.1939,-0.1951,-0.1951,-0.1953,-0.2009,-0.2016,-0.2085,-0.1977,-0.2204,-0.2214,-0.2223,-0.2285,-0.2302,-0.2317,0,0,0,0,0,-0.1911,-0.192,-0.1912,-0.1914,-0.1932,-0.1973,-0.1978,-0.1971,-0.1945,-0.1962,-0.1979,-0.195,-0.2075,-0.2015,-0.2022,-0.2093,-0.22,-0.2211,-0.2222,-0.2277,-0.2299,-0.2317,0,0,0,0,0,0,-0.1909,-0.1918,-0.191,-0.1919,-0.1946,-0.1967,-0.1978,-0.1974,-0.2,-0.1991,-0.1992,-0.1997,-0.2087,-0.2088,-0.2021,-0.2204,-0.2143,-0.2156,-0.2183,-0.2203,-0.2219,-0.221,-0.1979,0,0,0,0,0,-0.1909,-0.1912,-0.1934,-0.1942,-0.1953,-0.1965,-0.1976,-0.1979,-0.2003,-0.2009,-0.2027,-0.207,-0.2146,-0.2163,-0.2224,-0.2296,-0.2218,-0.2361,-0.2377,-0.239,-0.2396,-0.228,-0.2282,-0.2265,-0.2265,-0.2265,0,0,-0.1909,-0.1915,-0.1916,-0.1942,-0.1955,-0.2031,-0.1967,-0.1992,-0.2073,-0.2012,-0.2111,-0.2124,-0.2183,-0.2285,-0.2325,-0.2282,-0.2369,-0.2404,-0.2414,-0.2413,-0.2291,-0.2292,-0.2292,-0.2273,-0.2271,-0.227,0,0,-0.1941,-0.1919,-0.1948,-0.1992,-0.2022,-0.2052,-0.2062,-0.2094,-0.2116,-0.2205,-0.2208,-0.2236,-0.2349,-0.2385,-0.2428,-0.2567,-0.2467,-0.2618,-0.2671,-0.256,-0.2557,-0.2553,-0.2487,-0.2477,-0.2611,-0.2612,-0.2612,0,-0.1945,-0.1995,-0.1967,-0.2038,-0.2092,-0.2074,-0.2163,-0.2209,-0.2262,-0.2263,-0.2255,-0.2362,-0.2403,-0.2499,-0.2582,-0.2597,-0.2525,-0.2578,-0.2568,-0.2563,-0.2558,-0.249,-0.2478,-0.2616,-0.2616,-0.2615,-0.2615,0,-0.2021,-0.2084,-0.211,-0.2204,-0.2254,-0.2321,-0.2388,-0.2422,-0.2436,-0.2448,-0.2505,-0.2533,-0.2561,-0.2624,-0.2665,-0.2693,-0.2653,-0.2597,-0.2488,-0.2561,-0.249,-0.2475,-0.2623,-0.2621,-0.262,-0.2619,0,0,-0.1993,-0.2137,-0.2153,-0.2233,-0.2351,-0.2397,-0.2523,-0.2593,-0.2602,-0.2648,-0.2648,-0.2796,-0.2702,-0.2749,-0.2756,-0.2709,-0.2652,-0.2662,-0.2653,-0.2546,-0.2423,-0.2354,-0.2331,-0.2561,-0.2559,-0.2557,-0.2394,0,-0.2074,-0.2236,-0.2292,-0.2473,-0.257,-0.2611,-0.271,-0.2756,-0.2762,-0.2752,-0.2735,-0.2749,-0.2786,-0.276,-0.2727,-0.2667,-0.2615,-0.2704,-0.2415,-0.2408,-0.2291,-0.2312,-0.2219,-0.206,-0.2379,-0.2376,-0.2374,0,-0.2138,-0.2251,-0.2427,-0.2591,-0.2625,-0.2722,-0.2792,-0.2877,-0.2856,-0.283,-0.2786,-0.2737,-0.2729,-0.2709,-0.2592,-0.2637,-0.2559,-0.25,-0.2489,-0.2384,-0.231,-0.204,-0.202,-0.1975,-0.2351,-0.2353,-0.2355,0,-0.212,-0.2339,-0.2476,-0.2549,-0.2727,-0.2778,-0.2849,-0.2866,-0.2864,-0.2831,-0.2755,-0.2718,-0.2636,-0.2554,-0.2475,-0.2504,-0.2298,-0.2286,-0.2153,-0.2148,-0.1995,-0.198,-0.1847,-0.217,-0.2171,-0.2171,-0.2172,0,-0.2182,-0.2291,-0.2473,-0.2554,-0.2637,-0.2777,-0.2798,-0.2828,-0.2822,-0.274,-0.2754,-0.2646,-0.258,-0.2459,-0.2422,-0.2239,-0.2224,-0.2163,-0.2088,-0.2028,-0.2018,-0.1913,-0.194,-0.2165,-0.2166,-0.2168,-0.2169,0,-0.2116,-0.2261,-0.2401,-0.2593,-0.2622,-0.2668,-0.2733,-0.2718,-0.2748,-0.2634,-0.2607,-0.2537,-0.2386,-0.233,-0.2163,-0.2114,-0.1928,-0.1927,-0.1898,-0.1824,-0.1674,-0.1711,-0.1523,-0.1476,-0.1744,-0.1741,-0.1738,0,-0.2097,-0.2169,-0.2338,-0.2367,-0.2443,-0.2521,-0.2517,-0.2618,-0.258,-0.2531,-0.2433,-0.2317,-0.2177,-0.197,-0.1871,-0.1753,-0.1771,-0.1593,-0.1645,-0.1649,-0.1633,-0.1678,-0.1658,-0.1486,-0.1481,-0.1478,-0.1475,0,-0.2023,-0.2062,-0.2149,-0.2199,-0.2234,-0.226,-0.2288,-0.2258,-0.2317,-0.2263,-0.2143,-0.2065,-0.1884,-0.1706,-0.1588,-0.1517,-0.1543,-0.1515,-0.1485,-0.1403,-0.1471,-0.1394,-0.1661,-0.1444,-0.1447,-0.1449,-0.1451,-0.1452,-0.1895,-0.1893,-0.1968,-0.1996,-0.2019,-0.1988,-0.1953,-0.1982,-0.1929,-0.1842,-0.1852,-0.1731,-0.1599,-0.1423,-0.1336,-0.1172,-0.1283,-0.1134,-0.1174,-0.1218,-0.1186,-0.1423,-0.1143,-0.1145,-0.1146,-0.1147,-0.1148,0,-0.1745,-0.1742,-0.1755,-0.178,-0.1731,-0.1807,-0.1765,-0.1719,-0.1623,-0.1594,-0.1523,-0.1406,-0.1222,-0.1132,-0.096,-0.0864,-0.0864,-0.0836,-0.088,-0.0872,-0.1013,-0.1016,-0.0734,-0.0734,-0.0734,-0.0735,-0.0735,-0.0735,-0.1665,-0.161,-0.1617,-0.1493,-0.1495,-0.1391,-0.1351,-0.1303,-0.1276,-0.1181,-0.1146,-0.1159,-0.1099,-0.0963,-0.0764,-0.0695,-0.0679,-0.0638,-0.0682,-0.0797,-0.0829,-0.086,-0.0866,-0.0557,-0.0557,-0.0495,-0.0494,-0.0494]},{"header":{"parameterUnit":"m.s-1","parameterCategory":2,"la1":30.2991,"la2":30.254,"lo1":-89.0895,"lo2":-89.0444,"dy":0.0017,"dx":0.0017,"nx":28,"ny":28,"refTime":"2025-12-29T03:00:00:Z","depth":"0","parameterNumber":3,"parameterNumberName":"V-component_of_CURRENTS"},"data":[0,0,0,0,0,0,0,0,0,0,0,0,0,0,0,0,0,0,0,0,0,0,0,0,0,0,0,0,0,0,0,0,0,0,0,0,0,0,0,0,0,0,0,0,0,0,0,0,0,0,0,0,0,0,0,0,0,0,-0.0488,-0.0488,0,-0.0477,-0.0477,-0.0477,-0.0457,-0.0457,-0.0456,-0.0456,-0.0388,-0.0387,-0.0385,0,0,0,0,0,0,0,0,0,0,0,0,0,-0.0475,-0.0476,-0.0488,-0.0488,-0.0488,-0.0477,-0.0477,-0.0477,-0.0457,-0.0457,-0.0456,-0.0456,-0.0389,-0.0387,-0.0385,0,0,0,0,0,0,0,0,0,0,0,0,0,-0.0474,-0.0476,-0.0488,-0.0478,-0.0477,-0.0477,-0.0477,-0.0477,-0.0457,-0.0457,-0.0456,-0.0456,-0.039,-0.0387,-0.0385,-0.038,0,0,-0.0378,-0.0377,0,0,0,0,0,0,0,0,-0.0474,-0.0474,-0.0479,-0.0478,-0.0477,-0.0469,-0.0448,-0.0442,-0.0457,-0.0464,-0.0456,-0.0456,-0.0411,-0.0407,-0.0405,-0.0377,-0.0374,-0.0378,-0.0377,-0.0376,-0.0375,0,0,0,0,0,0,0,-0.0474,-0.0474,-0.0483,-0.0479,-0.0478,-0.0468,-0.0467,-0.0447,-0.0438,-0.0463,-0.0462,-0.0462,-0.041,-0.0408,-0.0404,-0.0373,-0.0378,-0.0376,-0.0375,-0.0374,-0.0328,-0.0328,0,0,0,0,0,0,-0.0478,-0.0475,-0.0484,-0.0483,-0.0475,-0.0468,-0.0468,-0.0471,-0.044,-0.0435,-0.0463,-0.0461,-0.0412,-0.0406,-0.0401,-0.0382,-0.0376,-0.0373,-0.0372,-0.0327,-0.0328,-0.0328,0,0,0,0,0,0,-0.0478,-0.0479,-0.0484,-0.0479,-0.0479,-0.0469,-0.0474,-0.0471,-0.0469,-0.044,-0.0434,-0.0462,-0.0411,-0.0404,-0.0391,-0.038,-0.0372,-0.037,-0.0327,-0.0327,-0.0328,-0.0352,0,0,0,0,0,0,-0.0478,-0.048,-0.0484,-0.0479,-0.0479,-0.0492,-0.0474,-0.0472,-0.047,-0.0468,-0.0437,-0.0431,-0.041,-0.0394,-0.0388,-0.0377,-0.0369,-0.0327,-0.0327,-0.0328,-0.0351,-0.0353,-0.0355,0,0,0,0,0,-0.0478,-0.0485,-0.0484,-0.0485,-0.0486,-0.0493,-0.0492,-0.0483,-0.047,-0.0477,-0.0456,-0.0432,-0.0391,-0.0393,-0.0386,-0.0373,-0.0327,-0.0327,-0.0328,-0.035,-0.0353,-0.0355,0,0,0,0,0,0,-0.0479,-0.0484,-0.0483,-0.0491,-0.0496,-0.049,-0.0492,-0.0485,-0.0475,-0.0468,-0.0438,-0.0431,-0.0413,-0.0395,-0.0398,-0.0362,-0.0353,-0.0352,-0.0372,-0.0374,-0.0376,-0.0331,-0.0367,0,0,0,0,0,-0.0483,-0.0491,-0.0495,-0.0502,-0.0504,-0.0498,-0.0499,-0.0495,-0.0485,-0.048,-0.0462,-0.0436,-0.0409,-0.0395,-0.0375,-0.0359,-0.0335,-0.0345,-0.0347,-0.0349,-0.0308,-0.0262,-0.0255,-0.0329,-0.0329,-0.0329,0,0,-0.0484,-0.0489,-0.0493,-0.0503,-0.0502,-0.0523,-0.0497,-0.0502,-0.0506,-0.0473,-0.0471,-0.0445,-0.0408,-0.039,-0.0379,-0.0372,-0.0331,-0.0349,-0.0351,-0.0308,-0.0261,-0.0254,-0.0247,-0.0329,-0.0329,-0.0329,0,0,-0.0506,-0.0497,-0.052,-0.0533,-0.0542,-0.0534,-0.0538,-0.0538,-0.052,-0.0526,-0.0488,-0.0443,-0.0443,-0.0383,-0.0359,-0.0354,-0.0345,-0.0372,-0.0338,-0.0296,-0.0288,-0.0281,-0.0309,-0.0304,-0.037,-0.037,-0.037,0,-0.0509,-0.0546,-0.0527,-0.0562,-0.0568,-0.0544,-0.057,-0.0555,-0.055,-0.0507,-0.0533,-0.0451,-0.0424,-0.034,-0.0342,-0.0351,-0.0361,-0.0335,-0.0296,-0.0288,-0.028,-0.0309,-0.0303,-0.0371,-0.0371,-0.0371,-0.037,0,-0.0558,-0.0594,-0.0607,-0.064,-0.0633,-0.0655,-0.063,-0.0608,-0.0588,-0.0556,-0.0484,-0.0445,-0.0379,-0.0375,-0.036,-0.028,-0.0322,-0.0308,-0.0287,-0.0274,-0.0307,-0.03,-0.0373,-0.0372,-0.0372,-0.0371,0,0,-0.0559,-0.063,-0.0639,-0.0663,-0.0678,-0.067,-0.0649,-0.06,-0.0554,-0.0531,-0.0469,-0.0396,-0.0343,-0.0308,-0.0272,-0.0226,-0.0207,-0.025,-0.0247,-0.0273,-0.0178,-0.0161,-0.0153,-0.0202,-0.0199,-0.0197,-0.0248,0,-0.061,-0.07,-0.0698,-0.0748,-0.0788,-0.0733,-0.0704,-0.0639,-0.0588,-0.0527,-0.0421,-0.037,-0.033,-0.0306,-0.0241,-0.0214,-0.018,-0.0198,-0.0188,-0.0188,-0.0168,-0.0138,-0.0149,-0.0187,-0.0241,-0.024,-0.0239,0,-0.0667,-0.0721,-0.0803,-0.0798,-0.0796,-0.0801,-0.0704,-0.0674,-0.0553,-0.051,-0.0405,-0.035,-0.0245,-0.0244,-0.0143,-0.0171,-0.016,-0.0145,-0.0147,-0.0097,-0.0153,-0.0195,-0.0173,-0.0102,-0.0228,-0.0229,-0.023,0,-0.0705,-0.077,-0.0833,-0.0853,-0.0856,-0.0823,-0.0775,-0.0664,-0.0611,-0.0497,-0.0472,-0.0329,-0.03,-0.022,-0.017,-0.0172,-0.0103,-0.0107,-0.0077,-0.0081,-0.0059,-0.0063,0.0056,-0.0024,-0.0024,-0.0024,-0.0023,0,-0.0779,-0.0818,-0.086,-0.0912,-0.0901,-0.0859,-0.0804,-0.0728,-0.0635,-0.0579,-0.0464,-0.0423,-0.0294,-0.0238,-0.0181,-0.0109,-0.0108,-0.0045,-0.0061,-0.0078,-0.0082,0.0007,0.0054,-0.0026,-0.0025,-0.0025,-0.0024,0,-0.0834,-0.0885,-0.0951,-0.0965,-0.095,-0.0934,-0.0851,-0.0803,-0.0716,-0.0656,-0.0631,-0.051,-0.0432,-0.0318,-0.0223,-0.0146,-0.0019,-0.005,-0.0109,-0.0126,-0.0001,0.0043,0.019,0.0245,-0.0018,-0.0017,-0.0016,0,-0.0876,-0.094,-0.0995,-0.1013,-0.1028,-0.0994,-0.096,-0.086,-0.0819,-0.0713,-0.0698,-0.0607,-0.0533,-0.038,-0.0228,-0.0112,-0.0023,-0.005,0.0001,0.004,0.0076,0.0114,0.0152,-0.0034,-0.0034,-0.0034,-0.0034,0,-0.0941,-0.0974,-0.1021,-0.1076,-0.1077,-0.1058,-0.1009,-0.0997,-0.0887,-0.0849,-0.0789,-0.0729,-0.0563,-0.0407,-0.0228,-0.0148,0.003,-0.0039,0.0038,0.0135,0.015,0.018,-0.0094,-0.0031,-0.0031,-0.0032,-0.0032,-0.0032,-0.0957,-0.0998,-0.1064,-0.1093,-0.1103,-0.1102,-0.1078,-0.1043,-0.0997,-0.0917,-0.0871,-0.0768,-0.0546,-0.0279,-0.0179,0.0034,0.0059,0.0101,0.0156,0.0192,0.0275,-0.0008,0.0031,0.0031,0.0031,0.0031,0.0032,0,-0.0964,-0.1004,-0.1053,-0.1094,-0.1106,-0.1105,-0.1084,-0.1056,-0.1026,-0.0963,-0.0896,-0.0673,-0.0451,-0.0223,0.0074,0.021,0.0259,0.0281,0.0332,0.0367,0.0134,0.0166,0.0193,0.0193,0.0193,0.0193,0.0193,0.0193,-0.0964,-0.1017,-0.1048,-0.1073,-0.1093,-0.109,-0.1083,-0.1064,-0.1009,-0.0897,-0.0773,-0.0683,-0.0368,0.0084,0.0357,0.0395,0.0526,0.0527,0.0613,0.0439,0.0425,0.0413,0.0455,0.0543,0.0543,0.0814,0.0817,0.0819]}],[{"header":{"parameterUnit":"m.s-1","parameterCategory":2,"la1":30.2991,"la2":30.254,"lo1":-89.0895,"lo2":-89.0444,"dy":0.0017,"dx":0.0017,"nx":28,"ny":28,"refTime":"2025-12-29T03:00:00:Z","depth":"2","parameterNumber":2,"parameterNumberName":"U-component_of_CURRENTS"},"data":[0,0,0,0,0,0,0,0,0,0,0,0,0,0,0,0,0,0,0,0,0,0,0,0,0,0,0,0,0,0,0,0,0,0,0,0,0,0,0,0,0,0,0,0,0,0,0,0,0,0,0,0,0,0,0,0,0,0,-0.1884,-0.1884,0,-0.1912,-0.1913,-0.1913,-0.1884,-0.1883,-0.1882,-0.188,-0.1905,-0.1907,-0.1909,0,0,0,0,0,0,0,0,0,0,0,0,0,-0.1865,-0.1865,-0.1884,-0.1884,-0.1885,-0.1912,-0.1913,-0.1913,-0.1884,-0.1883,-0.1881,-0.188,-0.1905,-0.1907,-0.1909,0,0,0,0,0,0,0,0,0,0,0,0,0,-0.1882,-0.1865,-0.1884,-0.1873,-0.1872,-0.1912,-0.1913,-0.1913,-0.1884,-0.1883,-0.1881,-0.1879,-0.1904,-0.1906,-0.1909,-0.1961,0,0,-0.1917,-0.1918,0,0,0,0,0,0,0,0,-0.1881,-0.1882,-0.1875,-0.1874,-0.1873,-0.1892,-0.1915,-0.1929,-0.1885,-0.188,-0.188,-0.1878,-0.1902,-0.1904,-0.1914,-0.1962,-0.1963,-0.1917,-0.1919,-0.192,-0.1921,0,0,0,0,0,0,0,-0.188,-0.1881,-0.1896,-0.1875,-0.1874,-0.1888,-0.1887,-0.1918,-0.1901,-0.1881,-0.1878,-0.1881,-0.1901,-0.1912,-0.1915,-0.1963,-0.1917,-0.192,-0.1921,-0.1922,-0.2137,-0.2141,0,0,0,0,0,0,-0.1874,-0.188,-0.1895,-0.1897,-0.1872,-0.1889,-0.1889,-0.1888,-0.1901,-0.1901,-0.1883,-0.188,-0.1908,-0.1912,-0.1915,-0.2032,-0.192,-0.1922,-0.1924,-0.2133,-0.2138,-0.2142,0,0,0,0,0,0,-0.1874,-0.1875,-0.1894,-0.1889,-0.1892,-0.1891,-0.1891,-0.189,-0.1891,-0.1902,-0.1902,-0.1884,-0.1907,-0.1912,-0.1959,-0.203,-0.1924,-0.1926,-0.2128,-0.2134,-0.214,-0.223,0,0,0,0,0,0,-0.1873,-0.1875,-0.1873,-0.1888,-0.1892,-0.1923,-0.1892,-0.1892,-0.1896,-0.1892,-0.1904,-0.1904,-0.1906,-0.1955,-0.1961,-0.2032,-0.1928,-0.2123,-0.2131,-0.2138,-0.2222,-0.2238,-0.2253,0,0,0,0,0,-0.1872,-0.1879,-0.1872,-0.1874,-0.1889,-0.1924,-0.1928,-0.1921,-0.1898,-0.1913,-0.1927,-0.1903,-0.201,-0.196,-0.1966,-0.2039,-0.2119,-0.2128,-0.2137,-0.2215,-0.2235,-0.2252,0,0,0,0,0,0,-0.1872,-0.1878,-0.187,-0.1878,-0.19,-0.1919,-0.1927,-0.1924,-0.1947,-0.1939,-0.1939,-0.1944,-0.2026,-0.2022,-0.1966,-0.213,-0.2068,-0.2079,-0.2125,-0.2144,-0.2159,-0.2136,-0.193,0,0,0,0,0,-0.1871,-0.1874,-0.1891,-0.1898,-0.1908,-0.1917,-0.1928,-0.1929,-0.195,-0.1955,-0.1971,-0.2007,-0.2076,-0.2093,-0.2144,-0.2212,-0.2135,-0.2272,-0.2288,-0.2301,-0.2292,-0.2202,-0.2206,-0.2173,-0.2172,-0.2172,0,0,-0.1873,-0.1876,-0.1877,-0.1898,-0.1909,-0.196,-0.1919,-0.1941,-0.1993,-0.1959,-0.2027,-0.206,-0.2109,-0.2204,-0.224,-0.2199,-0.2281,-0.2312,-0.2322,-0.2306,-0.2212,-0.2213,-0.2215,-0.2179,-0.2178,-0.2177,0,0,-0.1899,-0.1882,-0.1905,-0.1936,-0.196,-0.1977,-0.1984,-0.2013,-0.2029,-0.2103,-0.2113,-0.2164,-0.2257,-0.2298,-0.2336,-0.2463,-0.2373,-0.2509,-0.2554,-0.2469,-0.2468,-0.2467,-0.2397,-0.2388,-0.2506,-0.2506,-0.2506,0,-0.1904,-0.1932,-0.192,-0.1971,-0.1991,-0.1991,-0.2036,-0.2082,-0.2128,-0.2125,-0.2139,-0.2261,-0.2304,-0.2401,-0.2477,-0.2494,-0.2427,-0.2473,-0.248,-0.2477,-0.2473,-0.2401,-0.239,-0.2512,-0.2511,-0.251,-0.251,0,-0.1961,-0.1995,-0.2014,-0.2073,-0.2096,-0.2134,-0.2183,-0.2205,-0.2222,-0.2247,-0.2326,-0.2393,-0.2445,-0.2507,-0.2548,-0.2589,-0.2546,-0.2508,-0.2411,-0.248,-0.2403,-0.239,-0.2519,-0.2517,-0.2516,-0.2515,0,0,-0.1944,-0.2034,-0.2043,-0.2065,-0.2143,-0.2152,-0.2237,-0.2272,-0.2268,-0.2364,-0.2367,-0.2548,-0.2541,-0.2587,-0.2636,-0.2602,-0.2565,-0.2566,-0.2559,-0.2459,-0.2375,-0.2311,-0.229,-0.251,-0.2508,-0.2506,-0.2336,0,-0.199,-0.2079,-0.2115,-0.2189,-0.2227,-0.2243,-0.2297,-0.2327,-0.2352,-0.2363,-0.2435,-0.2487,-0.2592,-0.261,-0.2613,-0.2576,-0.2532,-0.2615,-0.2356,-0.2349,-0.2249,-0.2273,-0.2141,-0.1975,-0.2322,-0.2319,-0.2318,0,-0.2034,-0.208,-0.2161,-0.2192,-0.22,-0.2241,-0.2227,-0.2284,-0.2314,-0.2332,-0.2394,-0.2435,-0.2507,-0.2533,-0.25,-0.2544,-0.2482,-0.2432,-0.2422,-0.2312,-0.2258,-0.1962,-0.1936,-0.2294,-0.2296,-0.2298,-0.2299,0,-0.1996,-0.2092,-0.2135,-0.2167,-0.2231,-0.222,-0.2227,-0.2247,-0.2257,-0.2294,-0.2295,-0.2366,-0.2393,-0.235,-0.2368,-0.2399,-0.2247,-0.2248,-0.2123,-0.2118,-0.1929,-0.191,-0.2146,-0.2146,-0.2147,-0.2147,-0.2148,0,-0.2023,-0.2049,-0.2108,-0.2141,-0.2121,-0.2168,-0.2138,-0.2155,-0.2175,-0.2173,-0.2279,-0.229,-0.234,-0.2304,-0.2293,-0.2188,-0.2184,-0.2121,-0.2061,-0.1967,-0.1954,-0.217,-0.2175,-0.2141,-0.2142,-0.2144,-0.2145,0,-0.198,-0.2054,-0.207,-0.2109,-0.2118,-0.2079,-0.2082,-0.2055,-0.2105,-0.2105,-0.2123,-0.2199,-0.2163,-0.2183,-0.2077,-0.207,-0.1965,-0.191,-0.1822,-0.1756,-0.1908,-0.1921,-0.1734,-0.173,-0.1727,-0.1724,-0.1722,0,-0.1966,-0.1991,-0.2014,-0.2003,-0.2016,-0.1992,-0.1975,-0.2013,-0.2004,-0.2047,-0.2037,-0.2029,-0.2021,-0.189,-0.1827,-0.1726,-0.1828,-0.1542,-0.1589,-0.1901,-0.1861,-0.188,-0.1897,-0.1382,-0.1377,-0.1373,-0.1369,0,-0.1902,-0.1906,-0.1914,-0.1907,-0.1885,-0.1862,-0.185,-0.1841,-0.1889,-0.19,-0.1885,-0.1867,-0.1782,-0.1633,-0.1531,-0.1469,-0.1563,-0.1456,-0.1735,-0.1531,-0.1561,-0.1526,-0.1555,-0.1334,-0.1337,-0.134,-0.1342,-0.1343,-0.1808,-0.1771,-0.179,-0.1759,-0.1752,-0.1724,-0.1665,-0.1683,-0.1663,-0.1647,-0.1688,-0.1609,-0.1577,-0.1354,-0.1245,-0.1166,-0.1292,-0.1243,-0.1258,-0.1277,-0.129,-0.1315,-0.1045,-0.1047,-0.1048,-0.105,-0.1051,0,-0.1673,-0.1663,-0.1642,-0.1602,-0.1551,-0.1598,-0.1572,-0.1506,-0.1449,-0.1454,-0.1415,-0.1246,-0.1119,-0.1089,-0.0903,-0.0854,-0.087,-0.0819,-0.0853,-0.0889,-0.092,-0.092,-0.0573,-0.0572,-0.057,-0.0569,0,0,-0.1602,-0.1539,-0.1533,-0.1419,-0.1399,-0.1299,-0.1261,-0.1208,-0.1181,-0.1105,-0.1051,-0.109,-0.1083,-0.085,-0.0775,-0.0646,-0.0768,-0.0605,-0.0991,-0.107,-0.11,-0.1166,-0.1204,0,0,0,0,0]},{"header":{"parameterUnit":"m.s-1","parameterCategory":2,"la1":30.2991,"la2":30.254,"lo1":-89.0895,"lo2":-89.0444,"dy":0.0017,"dx":0.0017,"nx":28,"ny":28,"refTime":"2025-12-29T03:00:00:Z","depth":"2","parameterNumber":3,"parameterNumberName":"V-component_of_CURRENTS"},"data":[0,0,0,0,0,0,0,0,0,0,0,0,0,0,0,0,0,0,0,0,0,0,0,0,0,0,0,0,0,0,0,0,0,0,0,0,0,0,0,0,0,0,0,0,0,0,0,0,0,0,0,0,0,0,0,0,0,0,-0.0352,-0.0352,0,-0.0344,-0.0344,-0.0344,-0.0324,-0.0324,-0.0323,-0.0323,-0.0258,-0.0257,-0.0255,0,0,0,0,0,0,0,0,0,0,0,0,0,-0.0339,-0.0339,-0.0352,-0.0352,-0.0352,-0.0344,-0.0344,-0.0344,-0.0324,-0.0324,-0.0323,-0.0323,-0.0258,-0.0257,-0.0255,0,0,0,0,0,0,0,0,0,0,0,0,0,-0.0338,-0.0339,-0.0352,-0.0342,-0.0341,-0.0344,-0.0344,-0.0344,-0.0324,-0.0324,-0.0323,-0.0323,-0.0259,-0.0257,-0.0255,-0.0252,0,0,-0.0248,-0.0247,0,0,0,0,0,0,0,0,-0.0338,-0.0339,-0.0343,-0.0343,-0.0342,-0.0335,-0.0315,-0.031,-0.0324,-0.033,-0.0323,-0.0323,-0.0279,-0.0276,-0.0275,-0.0249,-0.0246,-0.0248,-0.0247,-0.0246,-0.0245,0,0,0,0,0,0,0,-0.0338,-0.0339,-0.0348,-0.0343,-0.0342,-0.0334,-0.0333,-0.0314,-0.0306,-0.0329,-0.0328,-0.0329,-0.0278,-0.0277,-0.0273,-0.0245,-0.0248,-0.0246,-0.0245,-0.0244,-0.0217,-0.0217,0,0,0,0,0,0,-0.0342,-0.0339,-0.0348,-0.0348,-0.0339,-0.0334,-0.0334,-0.0337,-0.0307,-0.0303,-0.0329,-0.0328,-0.0281,-0.0276,-0.0271,-0.0264,-0.0246,-0.0244,-0.0243,-0.0216,-0.0217,-0.0217,0,0,0,0,0,0,-0.0342,-0.0343,-0.0349,-0.0344,-0.0344,-0.0335,-0.0339,-0.0337,-0.0336,-0.0308,-0.0302,-0.033,-0.028,-0.0274,-0.0263,-0.0262,-0.0243,-0.0241,-0.0215,-0.0216,-0.0217,-0.0252,0,0,0,0,0,0,-0.0342,-0.0343,-0.0348,-0.0344,-0.0344,-0.036,-0.034,-0.0338,-0.0338,-0.0336,-0.0307,-0.03,-0.0279,-0.0266,-0.0261,-0.0258,-0.0239,-0.0215,-0.0216,-0.0217,-0.025,-0.0254,-0.0257,0,0,0,0,0,-0.0341,-0.0351,-0.0349,-0.035,-0.0351,-0.0361,-0.0361,-0.0352,-0.0338,-0.0347,-0.0326,-0.0301,-0.0268,-0.0265,-0.0259,-0.0255,-0.0214,-0.0215,-0.0217,-0.0249,-0.0253,-0.0257,0,0,0,0,0,0,-0.0345,-0.035,-0.0347,-0.0357,-0.0363,-0.0358,-0.0362,-0.0355,-0.0347,-0.034,-0.031,-0.0303,-0.0292,-0.0273,-0.0271,-0.0252,-0.0236,-0.0236,-0.0263,-0.0267,-0.0271,-0.0223,-0.0238,0,0,0,0,0,-0.035,-0.0359,-0.0362,-0.0371,-0.0374,-0.0369,-0.037,-0.0367,-0.0358,-0.0354,-0.0336,-0.0313,-0.0293,-0.0281,-0.0265,-0.0255,-0.0224,-0.0249,-0.0252,-0.0255,-0.0213,-0.0169,-0.0163,-0.0221,-0.0221,-0.0221,0,0,-0.0353,-0.0357,-0.0361,-0.0372,-0.0373,-0.0396,-0.0368,-0.0376,-0.0388,-0.0347,-0.0354,-0.0326,-0.0294,-0.0285,-0.0278,-0.0268,-0.0238,-0.0257,-0.0259,-0.0214,-0.0169,-0.0163,-0.0158,-0.0222,-0.0222,-0.0222,0,0,-0.0378,-0.0368,-0.0393,-0.0406,-0.0416,-0.0411,-0.0416,-0.0417,-0.0408,-0.0417,-0.0381,-0.0343,-0.0342,-0.0296,-0.0277,-0.0287,-0.026,-0.0299,-0.0271,-0.023,-0.0224,-0.0218,-0.0233,-0.0228,-0.0297,-0.0298,-0.0298,0,-0.0383,-0.0418,-0.0402,-0.0436,-0.0447,-0.0423,-0.0455,-0.0447,-0.0444,-0.0429,-0.0428,-0.0363,-0.0337,-0.028,-0.0278,-0.0289,-0.0281,-0.026,-0.0232,-0.0225,-0.0218,-0.0234,-0.0228,-0.0299,-0.0299,-0.0299,-0.0299,0,-0.0434,-0.0468,-0.0482,-0.0516,-0.0519,-0.0542,-0.053,-0.0527,-0.0512,-0.0496,-0.0445,-0.0389,-0.0334,-0.0332,-0.0303,-0.0236,-0.0257,-0.0246,-0.0217,-0.0214,-0.0233,-0.0225,-0.0302,-0.0301,-0.0301,-0.03,0,0,-0.0442,-0.0508,-0.0516,-0.0545,-0.0564,-0.0568,-0.0578,-0.0569,-0.0559,-0.0524,-0.0488,-0.0414,-0.0346,-0.0314,-0.0259,-0.0205,-0.0171,-0.0197,-0.0194,-0.0204,-0.0122,-0.011,-0.0102,-0.0159,-0.0157,-0.0155,-0.0176,0,-0.0494,-0.0577,-0.0585,-0.0645,-0.0684,-0.0659,-0.0666,-0.0644,-0.0616,-0.0578,-0.0469,-0.0421,-0.0353,-0.031,-0.0237,-0.0177,-0.0143,-0.0168,-0.0127,-0.0125,-0.0107,-0.0087,-0.0072,-0.0085,-0.0169,-0.0168,-0.0167,0,-0.0553,-0.0598,-0.068,-0.0712,-0.072,-0.0739,-0.0718,-0.072,-0.0653,-0.0626,-0.0523,-0.0446,-0.0314,-0.0278,-0.0139,-0.0162,-0.0128,-0.0093,-0.0094,-0.0044,-0.0096,-0.0089,-0.0068,-0.0154,-0.0155,-0.0156,-0.0157,0,-0.0586,-0.0656,-0.0719,-0.074,-0.0777,-0.0779,-0.0769,-0.0731,-0.071,-0.0632,-0.0595,-0.0451,-0.0366,-0.0268,-0.0156,-0.0153,-0.0041,-0.0047,-0.0014,-0.0017,0.0032,0.0031,0.0038,0.0038,0.0038,0.0038,0.0038,0,-0.0656,-0.0702,-0.0738,-0.0786,-0.0806,-0.0807,-0.0802,-0.0786,-0.0732,-0.0701,-0.0591,-0.0521,-0.0352,-0.0259,-0.0175,-0.006,-0.0059,0.0018,0.0005,0.001,0.0008,-0.0007,-0.0012,0.0037,0.0037,0.0037,0.0037,0,-0.0711,-0.0751,-0.0809,-0.0842,-0.0843,-0.0847,-0.0817,-0.0808,-0.0767,-0.0716,-0.0682,-0.0562,-0.0446,-0.031,-0.0179,-0.0091,0.0002,0.0024,-0.0002,-0.0014,-0.0009,-0.0016,0.0068,0.0068,0.0069,0.007,0.007,0,-0.0753,-0.0806,-0.0842,-0.0851,-0.087,-0.0864,-0.0861,-0.0827,-0.0812,-0.074,-0.0714,-0.0596,-0.0506,-0.0313,-0.0151,-0.0021,-0.0014,0.0063,0.0107,0.0029,0.0007,-0.0001,-0.0009,0.0114,0.0115,0.0115,0.0116,0,-0.0818,-0.0831,-0.0872,-0.0899,-0.0901,-0.0895,-0.0884,-0.0876,-0.0839,-0.08,-0.0751,-0.0682,-0.0488,-0.0303,-0.0119,-0.0034,0.0056,0.0081,0.0028,0.0113,0.0075,0.0052,0.0043,0.0122,0.0121,0.0121,0.0121,0.012,-0.0836,-0.0861,-0.091,-0.0922,-0.0928,-0.0932,-0.0921,-0.0908,-0.089,-0.0822,-0.0779,-0.0644,-0.0484,-0.0186,-0.0051,0.0101,0.0082,0.0148,0.0145,0.0141,0.0161,0.0128,0.0184,0.0183,0.0183,0.0183,0.0183,0,-0.0847,-0.0885,-0.0919,-0.0939,-0.0949,-0.0948,-0.0943,-0.0917,-0.0897,-0.081,-0.0743,-0.0532,-0.0334,-0.0157,0.0086,0.0202,0.0205,0.0236,0.0224,0.0217,0.0211,0.0234,0.0276,0.0277,0.0277,0.0278,0,0,-0.0852,-0.0899,-0.0925,-0.0952,-0.0964,-0.0964,-0.0958,-0.092,-0.0847,-0.0748,-0.0628,-0.0506,-0.0303,-0.0112,0.0037,0.0174,0.0168,0.0193,0.0107,0.0069,0.0062,0.015,0.0177,0,0,0,0,0]}],[{"header":{"parameterUnit":"m.s-1","parameterCategory":2,"la1":30.2991,"la2":30.254,"lo1":-89.0895,"lo2":-89.0444,"dy":0.0017,"dx":0.0017,"nx":28,"ny":28,"refTime":"2025-12-29T03:00:00:Z","depth":"4","parameterNumber":2,"parameterNumberName":"U-component_of_CURRENTS"},"data":[0,0,0,0,0,0,0,0,0,0,0,0,0,0,0,0,0,0,0,0,0,0,0,0,0,0,0,0,0,0,0,0,0,0,0,0,0,0,0,0,0,0,0,0,0,0,0,0,0,0,0,0,0,0,0,0,0,0,-0.1394,-0.1394,0,-0.1436,-0.1437,-0.1437,-0.1451,-0.1451,-0.1451,-0.1451,-0.1515,-0.1517,-0.1519,0,0,0,0,0,0,0,0,0,0,0,0,0,-0.136,-0.1361,-0.1394,-0.1394,-0.1395,-0.1436,-0.1437,-0.1437,-0.1451,-0.1451,-0.1451,-0.1451,-0.1515,-0.1517,-0.1519,0,0,0,0,0,0,0,0,0,0,0,0,0,-0.1386,-0.1361,-0.1394,-0.1406,-0.1408,-0.1436,-0.1437,-0.1437,-0.1452,-0.1451,-0.1451,-0.1451,-0.1514,-0.1517,-0.152,-0.1544,0,0,-0.1529,-0.153,0,0,0,0,0,0,0,0,-0.1385,-0.1388,-0.1404,-0.1405,-0.1407,-0.1438,-0.1449,-0.1474,-0.1452,-0.1435,-0.1451,-0.145,-0.1491,-0.1496,-0.1505,-0.1547,-0.155,-0.1529,-0.1531,-0.1532,-0.1533,0,0,0,0,0,0,0,-0.1383,-0.1386,-0.1411,-0.1404,-0.1406,-0.1422,-0.1425,-0.1454,-0.1466,-0.1437,-0.1438,-0.1442,-0.1492,-0.1502,-0.1507,-0.1551,-0.1529,-0.1531,-0.1533,-0.1534,-0.1636,-0.1637,0,0,0,0,0,0,-0.1375,-0.1384,-0.141,-0.1412,-0.1394,-0.1423,-0.1426,-0.1429,-0.1465,-0.147,-0.1442,-0.1442,-0.1498,-0.1504,-0.1509,-0.1545,-0.1532,-0.1534,-0.1536,-0.1635,-0.1636,-0.1637,0,0,0,0,0,0,-0.1374,-0.1377,-0.1408,-0.1399,-0.1404,-0.1423,-0.1426,-0.143,-0.1455,-0.1469,-0.1474,-0.1465,-0.1498,-0.1505,-0.1553,-0.1547,-0.1536,-0.1538,-0.1634,-0.1636,-0.1637,-0.1613,0,0,0,0,0,0,-0.1373,-0.1377,-0.1388,-0.1398,-0.1404,-0.1438,-0.1427,-0.1431,-0.1456,-0.1457,-0.149,-0.1494,-0.1498,-0.1549,-0.1556,-0.1551,-0.1541,-0.1633,-0.1635,-0.1636,-0.1612,-0.1613,-0.1614,0,0,0,0,0,-0.1372,-0.1385,-0.1388,-0.1392,-0.1415,-0.1439,-0.1444,-0.1457,-0.1458,-0.1477,-0.1499,-0.1494,-0.1565,-0.1553,-0.1561,-0.1556,-0.1632,-0.1634,-0.1636,-0.1612,-0.1613,-0.1614,0,0,0,0,0,0,-0.138,-0.1388,-0.1392,-0.1408,-0.1429,-0.1441,-0.1462,-0.1469,-0.1502,-0.1509,-0.1517,-0.1525,-0.1559,-0.1574,-0.156,-0.1593,-0.1593,-0.1597,-0.1572,-0.1573,-0.1574,-0.1549,-0.1543,0,0,0,0,0,-0.1386,-0.1398,-0.141,-0.1428,-0.1437,-0.1454,-0.1469,-0.148,-0.1503,-0.1517,-0.1541,-0.1563,-0.1573,-0.1588,-0.161,-0.1639,-0.1644,-0.164,-0.1641,-0.1642,-0.1628,-0.1652,-0.1653,-0.1645,-0.1645,-0.1645,0,0,-0.1397,-0.1402,-0.1411,-0.1431,-0.1446,-0.1463,-0.1463,-0.1494,-0.1502,-0.1521,-0.1558,-0.1576,-0.1585,-0.1607,-0.1623,-0.1619,-0.1647,-0.1644,-0.1644,-0.163,-0.1655,-0.1655,-0.1656,-0.1646,-0.1646,-0.1646,0,0,-0.1418,-0.1426,-0.1443,-0.1459,-0.1485,-0.1489,-0.1501,-0.153,-0.1539,-0.1577,-0.1579,-0.1592,-0.1639,-0.1623,-0.162,-0.1645,-0.1654,-0.1664,-0.1642,-0.1666,-0.1666,-0.1666,-0.1667,-0.1667,-0.166,-0.166,-0.166,0,-0.1433,-0.1438,-0.1455,-0.1475,-0.1471,-0.15,-0.1504,-0.1528,-0.1572,-0.1567,-0.1591,-0.1618,-0.163,-0.1612,-0.1617,-0.1639,-0.1662,-0.1632,-0.1664,-0.1665,-0.1665,-0.1666,-0.1667,-0.1659,-0.1659,-0.1659,-0.166,0,-0.1454,-0.1466,-0.1478,-0.1495,-0.1504,-0.1516,-0.1532,-0.1558,-0.157,-0.1579,-0.159,-0.1611,-0.1615,-0.1621,-0.1625,-0.1626,-0.1642,-0.1663,-0.1654,-0.1664,-0.1665,-0.1666,-0.1658,-0.1658,-0.1659,-0.1659,0,0,-0.1453,-0.1482,-0.1487,-0.1472,-0.1502,-0.1497,-0.1522,-0.1518,-0.1516,-0.1564,-0.1554,-0.1561,-0.1576,-0.1575,-0.1584,-0.1598,-0.1615,-0.1637,-0.1639,-0.1622,-0.1667,-0.1545,-0.1535,-0.1659,-0.1659,-0.166,-0.1662,0,-0.1454,-0.1464,-0.148,-0.1471,-0.1458,-0.1475,-0.1483,-0.1494,-0.1512,-0.1531,-0.1534,-0.1549,-0.1558,-0.1566,-0.1579,-0.162,-0.162,-0.1611,-0.1672,-0.1672,-0.1551,-0.1532,-0.1661,-0.1663,-0.1663,-0.1663,-0.1663,0,-0.1454,-0.1444,-0.1439,-0.1408,-0.1404,-0.1415,-0.1389,-0.1405,-0.1442,-0.1463,-0.1482,-0.1513,-0.1527,-0.1551,-0.159,-0.1598,-0.1622,-0.1646,-0.1648,-0.1538,-0.1552,-0.1655,-0.1666,-0.1665,-0.1665,-0.1665,-0.1665,0,-0.1402,-0.1401,-0.1376,-0.1374,-0.1371,-0.1361,-0.1359,-0.1383,-0.1386,-0.1434,-0.1459,-0.1485,-0.152,-0.1555,-0.1603,-0.1615,-0.1658,-0.1678,-0.1575,-0.1568,-0.1689,-0.1689,-0.169,-0.169,-0.169,-0.169,-0.169,0,-0.1366,-0.1348,-0.135,-0.1341,-0.1292,-0.1308,-0.1289,-0.1307,-0.1346,-0.1362,-0.1424,-0.1447,-0.1535,-0.1575,-0.1603,-0.1581,-0.1654,-0.1549,-0.1553,-0.168,-0.1679,-0.1689,-0.1689,-0.169,-0.169,-0.169,-0.169,0,-0.1322,-0.1342,-0.1301,-0.1283,-0.128,-0.1244,-0.1254,-0.1252,-0.1301,-0.1335,-0.1358,-0.144,-0.1488,-0.1538,-0.1605,-0.1566,-0.1567,-0.1541,-0.1653,-0.1668,-0.146,-0.1459,-0.141,-0.1405,-0.1402,-0.1398,-0.1396,0,-0.1294,-0.1281,-0.1256,-0.1239,-0.1236,-0.1206,-0.1207,-0.1235,-0.1251,-0.1322,-0.1341,-0.1402,-0.1452,-0.1429,-0.1495,-0.1495,-0.1488,-0.1463,-0.1456,-0.1418,-0.1428,-0.1433,-0.1437,-0.139,-0.1389,-0.1388,-0.1387,0,-0.1221,-0.1237,-0.1206,-0.1183,-0.1172,-0.1148,-0.1156,-0.1154,-0.1208,-0.1262,-0.1285,-0.1292,-0.1335,-0.1367,-0.1367,-0.1376,-0.1464,-0.1424,-0.1432,-0.1425,-0.1394,-0.1408,-0.1417,-0.1374,-0.1376,-0.1377,-0.1378,0,-0.1163,-0.1131,-0.1127,-0.1084,-0.1099,-0.1095,-0.1092,-0.1103,-0.1113,-0.1194,-0.1206,-0.1269,-0.1341,-0.1305,-0.1315,-0.1295,-0.1278,-0.1236,-0.1253,-0.1268,-0.1217,-0.1157,-0.1045,0,0,0,0,0,-0.108,-0.1055,-0.1028,-0.0991,-0.1022,-0.1027,-0.1069,-0.1082,-0.1141,-0.1126,-0.1155,-0.1185,-0.1177,-0.1209,-0.1159,-0.1248,-0.1287,-0.1183,-0.125,-0.1301,-0.1317,-0.1269,0,0,0,0,0,0,-0.1031,-0.1014,-0.0995,-0.0945,-0.0918,-0.0937,-0.0964,-0.0998,-0.0991,-0.1058,-0.1066,-0.11,-0.112,-0.1191,-0.1133,-0.1138,-0.1151,-0.1213,-0.1209,-0.1293,-0.1307,-0.1319,-0.1275,0,0,0,0,0]},{"header":{"parameterUnit":"m.s-1","parameterCategory":2,"la1":30.2991,"la2":30.254,"lo1":-89.0895,"lo2":-89.0444,"dy":0.0017,"dx":0.0017,"nx":28,"ny":28,"refTime":"2025-12-29T03:00:00:Z","depth":"4","parameterNumber":3,"parameterNumberName":"V-component_of_CURRENTS"},"data":[0,0,0,0,0,0,0,0,0,0,0,0,0,0,0,0,0,0,0,0,0,0,0,0,0,0,0,0,0,0,0,0,0,0,0,0,0,0,0,0,0,0,0,0,0,0,0,0,0,0,0,0,0,0,0,0,0,0,-0.0174,-0.0175,0,-0.018,-0.018,-0.018,-0.0167,-0.0167,-0.0167,-0.0166,-0.0123,-0.0122,-0.0122,0,0,0,0,0,0,0,0,0,0,0,0,0,-0.0157,-0.0158,-0.0174,-0.0175,-0.0175,-0.018,-0.018,-0.018,-0.0167,-0.0167,-0.0166,-0.0166,-0.0123,-0.0123,-0.0122,0,0,0,0,0,0,0,0,0,0,0,0,0,-0.0164,-0.0158,-0.0174,-0.0169,-0.0169,-0.018,-0.018,-0.018,-0.0168,-0.0167,-0.0166,-0.0166,-0.0124,-0.0123,-0.0121,-0.0126,0,0,-0.0118,-0.0117,0,0,0,0,0,0,0,0,-0.0164,-0.0164,-0.017,-0.0169,-0.0169,-0.0173,-0.0158,-0.016,-0.0168,-0.0168,-0.0166,-0.0165,-0.0136,-0.0134,-0.0136,-0.0124,-0.0122,-0.0118,-0.0117,-0.0117,-0.0116,0,0,0,0,0,0,0,-0.0163,-0.0164,-0.0176,-0.017,-0.0169,-0.0168,-0.0168,-0.0159,-0.0154,-0.0168,-0.0167,-0.0168,-0.0135,-0.0138,-0.0135,-0.0122,-0.0118,-0.0117,-0.0116,-0.0116,-0.0139,-0.014,0,0,0,0,0,0,-0.0163,-0.0164,-0.0176,-0.0177,-0.0165,-0.0169,-0.0169,-0.0172,-0.0155,-0.0152,-0.0168,-0.0167,-0.014,-0.0137,-0.0133,-0.0175,-0.0117,-0.0116,-0.0115,-0.0138,-0.0139,-0.0141,0,0,0,0,0,0,-0.0163,-0.0164,-0.0176,-0.017,-0.0172,-0.017,-0.0173,-0.0172,-0.0177,-0.0156,-0.0152,-0.0174,-0.0139,-0.0135,-0.0138,-0.0172,-0.0115,-0.0114,-0.0136,-0.0138,-0.014,-0.0235,0,0,0,0,0,0,-0.0162,-0.0164,-0.017,-0.017,-0.0172,-0.0194,-0.0174,-0.0173,-0.0178,-0.0177,-0.016,-0.0155,-0.0139,-0.014,-0.0137,-0.0169,-0.0113,-0.0134,-0.0137,-0.0139,-0.023,-0.024,-0.0248,0,0,0,0,0,-0.0162,-0.0173,-0.0171,-0.0172,-0.0179,-0.0195,-0.0197,-0.0192,-0.0179,-0.0192,-0.018,-0.0156,-0.0153,-0.014,-0.0136,-0.0169,-0.0133,-0.0136,-0.0139,-0.0226,-0.0238,-0.0248,0,0,0,0,0,0,-0.0168,-0.0173,-0.017,-0.0182,-0.0193,-0.0193,-0.0203,-0.0198,-0.0199,-0.0194,-0.0169,-0.0165,-0.0182,-0.016,-0.0146,-0.0183,-0.0141,-0.0143,-0.0208,-0.0219,-0.0228,-0.0241,-0.0112,0,0,0,0,0,-0.0173,-0.0183,-0.0189,-0.02,-0.0205,-0.0205,-0.021,-0.0209,-0.0208,-0.0208,-0.0197,-0.0187,-0.0192,-0.0192,-0.0186,-0.0204,-0.0151,-0.0223,-0.0232,-0.024,-0.0248,-0.02,-0.0205,-0.015,-0.015,-0.015,0,0,-0.0177,-0.0182,-0.0187,-0.0202,-0.0207,-0.0236,-0.0207,-0.0221,-0.0249,-0.0202,-0.0231,-0.0216,-0.0202,-0.0228,-0.0233,-0.0213,-0.0224,-0.0243,-0.025,-0.0254,-0.0204,-0.0209,-0.0213,-0.0152,-0.0152,-0.0152,0,0,-0.0205,-0.0198,-0.0223,-0.0239,-0.0253,-0.0257,-0.0263,-0.0271,-0.0277,-0.0299,-0.0279,-0.0291,-0.0283,-0.0297,-0.0298,-0.0353,-0.0272,-0.0342,-0.0402,-0.0356,-0.036,-0.0363,-0.0285,-0.028,-0.0349,-0.0349,-0.0349,0,-0.0212,-0.0246,-0.0234,-0.0269,-0.0287,-0.0271,-0.031,-0.0321,-0.033,-0.0341,-0.0319,-0.0332,-0.0326,-0.0366,-0.0392,-0.0377,-0.0311,-0.0363,-0.0367,-0.0369,-0.037,-0.029,-0.0283,-0.0354,-0.0353,-0.0353,-0.0352,0,-0.0264,-0.0296,-0.0312,-0.0352,-0.0369,-0.0397,-0.041,-0.0427,-0.0423,-0.0429,-0.0455,-0.0445,-0.0452,-0.0459,-0.0445,-0.0465,-0.04,-0.0381,-0.0339,-0.0381,-0.0294,-0.0285,-0.0361,-0.0359,-0.0358,-0.0356,0,0,-0.0274,-0.0338,-0.0347,-0.0381,-0.0415,-0.0433,-0.048,-0.0516,-0.0539,-0.0545,-0.057,-0.0601,-0.0576,-0.0576,-0.0558,-0.0533,-0.0493,-0.0463,-0.0458,-0.0384,-0.0348,-0.0347,-0.0337,-0.0456,-0.0455,-0.0455,-0.0276,0,-0.0324,-0.0403,-0.0421,-0.0496,-0.0536,-0.0543,-0.0585,-0.0611,-0.0615,-0.063,-0.0628,-0.0636,-0.0625,-0.0617,-0.0601,-0.0513,-0.0476,-0.0541,-0.0319,-0.0312,-0.0306,-0.0331,-0.0454,-0.0269,-0.0267,-0.0266,-0.0265,0,-0.0378,-0.0421,-0.0505,-0.0569,-0.0585,-0.0625,-0.0669,-0.0704,-0.0724,-0.0722,-0.0732,-0.07,-0.0694,-0.0659,-0.0547,-0.0574,-0.0477,-0.0404,-0.0394,-0.0358,-0.0298,-0.0221,-0.0248,-0.0249,-0.025,-0.0252,-0.0253,0,-0.0397,-0.048,-0.0547,-0.0572,-0.064,-0.0675,-0.0702,-0.0734,-0.0754,-0.0767,-0.0756,-0.0742,-0.0702,-0.0609,-0.0489,-0.0493,-0.0325,-0.0308,-0.0216,-0.0211,-0.022,-0.0219,-0.0221,-0.0221,-0.0222,-0.0222,-0.0223,0,-0.0448,-0.0502,-0.056,-0.0602,-0.0659,-0.0696,-0.0747,-0.0773,-0.0796,-0.0805,-0.0796,-0.0773,-0.068,-0.0581,-0.0477,-0.0322,-0.0313,-0.0227,-0.0178,-0.0261,-0.0267,-0.0211,-0.0213,-0.0215,-0.0217,-0.0218,-0.0219,0,-0.0474,-0.0521,-0.059,-0.0658,-0.0678,-0.0713,-0.0763,-0.0792,-0.081,-0.0813,-0.0809,-0.0764,-0.0638,-0.0535,-0.0359,-0.0293,-0.0156,-0.01,-0.0178,-0.0134,-0.0064,-0.0072,0.0032,0.0033,0.0034,0.0035,0.0036,0,-0.0499,-0.0543,-0.0612,-0.0637,-0.0673,-0.0722,-0.0754,-0.0795,-0.0812,-0.0797,-0.0786,-0.0688,-0.064,-0.0388,-0.0296,-0.0102,-0.0087,-0.0003,-0.0071,-0.0082,-0.0043,-0.0053,-0.0062,0.0038,0.0038,0.0038,0.0038,0,-0.0534,-0.0557,-0.0602,-0.0649,-0.0687,-0.0726,-0.0767,-0.0774,-0.0803,-0.0812,-0.0736,-0.064,-0.0501,-0.0362,-0.0221,-0.0089,-0.0061,0.0008,0.0007,-0.0056,-0.0073,-0.0038,-0.0049,0.0042,0.0042,0.0041,0.0041,0,-0.0537,-0.0562,-0.0613,-0.0647,-0.0692,-0.072,-0.0741,-0.0742,-0.0755,-0.0739,-0.07,-0.0587,-0.0523,-0.0351,-0.022,-0.0104,-0.0076,-0.0037,-0.0036,-0.0039,-0.0143,-0.0181,-0.0057,0,0,0,0,0,-0.0535,-0.0568,-0.0607,-0.0647,-0.0689,-0.0714,-0.0749,-0.0764,-0.0774,-0.0713,-0.071,-0.0586,-0.0407,-0.0337,-0.0215,-0.021,-0.0067,-0.0064,-0.0023,0.0062,0.0058,-0.0058,0,0,0,0,0,0,-0.0536,-0.0582,-0.0604,-0.0639,-0.0662,-0.0708,-0.0727,-0.0731,-0.0695,-0.0687,-0.059,-0.0553,-0.0381,-0.0471,-0.021,-0.018,-0.0136,0.0011,0.0014,0.0064,0.006,0.0057,-0.0063,0,0,0,0,0]}]]